GW1429 Weather Reports


Display with metric or nautical units.
time (UTC)temp
F
wind
direction
speed
MPH
gust
MPH
rain 1hr
in
rain 24hr
in
rain mn
in
humidity
%
barometer
mb
20240424230235 82 139 10.0 15.0 0.00 0.00 0.00 68 1050.1
20240424225733 81 134 11.0 16.0 0.00 0.00 0.00 68 1050.1
20240424225232 82 158 10.0 13.0 0.00 0.00 0.00 67 1050.1
20240424224729 81 147 11.0 16.0 0.00 0.00 0.00 69 1050.1
20240424224228 81 151 13.0 18.0 0.00 0.00 0.00 69 1050.2
20240424223727 81 147 9.0 14.0 0.00 0.00 0.00 69 1050.2
20240424223225 80 117 0.0 13.0 0.00 0.00 0.00 69 1050.5
20240424222725 80 139 6.0 9.0 0.00 0.00 0.00 71 1050.4
20240424222223 80 207 4.0 15.0 0.00 0.00 0.00 72 1050.3
20240424221722 80 152 4.0 14.0 0.00 0.00 0.00 71 1050.4
20240424221219 80 143 9.0 16.0 0.00 0.00 0.00 70 1050.4
20240424220717 80 116 3.0 14.0 0.00 0.00 0.00 72 1050.3
20240424220216 80 134 5.0 11.0 0.00 0.00 0.00 72 1050.7
20240424215712 80 173 2.0 16.0 0.00 0.00 0.00 71 1050.7
20240424215210 80 158 7.0 14.0 0.00 0.00 0.00 70 1050.8
20240424214705 80 139 9.0 17.0 0.00 0.00 0.00 71 1050.6
20240424214200 80 150 10.0 13.0 0.00 0.00 0.00 70 1050.8
20240424213700 80 132 7.0 14.0 0.00 0.00 0.00 70 1050.6
20240424213159 80 111 12.0 16.0 0.00 0.00 0.00 69 1051.0
20240424212658 80 166 8.0 14.0 0.00 0.00 0.00 71 1050.8
20240424212158 80 150 6.0 13.0 0.00 0.00 0.00 72 1050.8
20240424211656 81 121 6.0 15.0 0.00 0.00 0.00 71 1051.1
20240424211155 80 135 9.0 21.0 0.00 0.00 0.00 71 1051.0
20240424210654 79 133 8.0 15.0 0.00 0.00 0.00 72 1051.0
20240424210147 80 114 5.0 9.0 0.00 0.00 0.00 72 1051.3
20240424205646 80 134 5.0 10.0 0.00 0.00 0.00 71 1051.2
20240424205144 80 229 7.0 13.0 0.00 0.00 0.00 70 1051.3
20240424204643 80 127 5.0 11.0 0.00 0.00 0.00 71 1051.3
20240424204142 79 130 4.0 17.0 0.00 0.00 0.00 72 1051.4
20240424203641 80 133 7.0 12.0 0.00 0.00 0.00 72 1051.3
20240424203141 80 183 3.0 13.0 0.00 0.00 0.00 72 1051.4
20240424202640 79 176 5.0 13.0 0.00 0.00 0.00 73 1051.5
20240424202139 79 199 7.0 11.0 0.00 0.00 0.00 73 1051.7
20240424201637 79 141 15.0 15.0 0.00 0.00 0.00 73 1051.8
20240424201137 79 132 4.0 16.0 0.00 0.00 0.00 73 1051.6
20240424200636 80 135 3.0 15.0 0.00 0.00 0.00 72 1051.9
20240424200135 79 152 6.0 6.0 0.00 0.00 0.00 74 1052.0
20240424195634 78 188 3.0 10.0 0.00 0.00 0.00 75 1051.9
20240424195133 78 190 3.0 13.0 0.00 0.00 0.00 75 1052.0
20240424194631 78 132 7.0 10.0 0.00 0.00 0.00 75 1052.1
20240424194130 78 156 4.0 13.0 0.00 0.00 0.00 76 1052.1
20240424193628 79 130 9.0 11.0 0.00 0.00 0.00 75 1052.5
20240424193127 78 75 3.0 11.0 0.00 0.00 0.00 76 1052.5
20240424192627 78 162 5.0 10.0 0.00 0.00 0.00 75 1052.4
20240424192126 78 145 9.0 13.0 0.00 0.00 0.00 76 1052.6
20240424191625 78 139 11.0 17.0 0.00 0.00 0.00 76 1052.6
20240424191124 79 156 2.0 10.0 0.00 0.00 0.00 75 1052.6
20240424190623 78 127 3.0 15.0 0.00 0.00 0.00 76 1052.5
20240424190123 77 137 4.0 13.0 0.00 0.00 0.00 77 1052.7
20240424185622 77 121 17.0 17.0 0.00 0.00 0.00 77 1052.7
20240424185122 77 125 7.0 14.0 0.00 0.00 0.00 76 1052.8
20240424184621 77 146 5.0 10.0 0.00 0.00 0.00 77 1052.8
20240424184121 77 156 2.0 7.0 0.00 0.00 0.00 79 1052.7
20240424183620 77 161 3.0 13.0 0.00 0.00 0.00 78 1052.9
20240424183119 77 140 5.0 9.0 0.00 0.00 0.00 78 1053.0
20240424182618 78 90 3.0 10.0 0.00 0.00 0.00 77 1053.0
20240424182117 77 138 8.0 10.0 0.00 0.00 0.00 78 1053.1
20240424181616 77 148 7.0 10.0 0.00 0.00 0.00 78 1053.0
20240424181114 77 180 6.0 10.0 0.00 0.00 0.00 79 1053.1
20240424180614 78 113 6.0 7.0 0.00 0.00 0.00 77 1053.4
20240424180112 77 165 4.0 12.0 0.00 0.00 0.00 80 1053.2
20240424175611 76 110 2.0 8.0 0.00 0.00 0.00 81 1053.3
20240424175109 76 118 10.0 12.0 0.00 0.00 0.00 82 1053.4
20240424174607 75 149 8.0 9.0 0.00 0.00 0.00 83 1053.6
20240424174105 75 117 3.0 7.0 0.00 0.00 0.00 84 1053.8
20240424173602 75 157 4.0 11.0 0.00 0.00 0.00 83 1054.0
20240424173101 75 142 5.0 9.0 0.00 0.00 0.00 84 1054.0
20240424172559 75 186 4.0 7.0 0.00 0.00 0.00 84 1054.1
20240424172058 74 144 11.0 11.0 0.00 0.00 0.00 84 1054.1
20240424171556 74 160 6.0 13.0 0.00 0.00 0.00 85 1054.1
20240424171055 74 151 7.0 7.0 0.00 0.00 0.00 86 1053.9
20240424170554 74 180 4.0 6.0 0.00 0.00 0.00 86 1054.0
20240424170055 73 180 3.0 8.0 0.00 0.00 0.00 87 1054.1
20240424165554 73 129 7.0 10.0 0.00 0.00 0.00 87 1054.0
20240424165052 73 168 2.0 6.0 0.00 0.00 0.00 88 1054.1
20240424164547 73 159 4.0 6.0 0.00 0.00 0.00 88 1054.0
20240424164047 73 202 0.0 3.0 0.00 0.00 0.00 88 1054.0
20240424163546 73 171 2.0 8.0 0.00 0.00 0.00 89 1053.9
20240424163046 72 151 7.0 11.0 0.00 0.00 0.00 89 1053.9
20240424162544 72 183 3.0 6.0 0.00 0.00 0.00 90 1053.8
20240424162044 72 221 5.0 9.0 0.00 0.00 0.00 89 1054.0
20240424161543 73 203 1.0 9.0 0.00 0.00 0.00 88 1054.2
20240424161042 73 177 5.0 9.0 0.00 0.00 0.00 88 1053.7
20240424160543 73 205 3.0 4.0 0.00 0.00 0.00 90 1053.8
20240424160042 72 223 4.0 6.0 0.00 0.00 0.00 90 1053.6
20240424155540 71 193 3.0 8.0 0.00 0.00 0.00 90 1053.5
20240424155038 71 206 5.0 9.0 0.00 0.00 0.00 90 1053.8
20240424154536 71 197 3.0 5.0 0.00 0.00 0.00 91 1053.7
20240424154034 71 198 1.0 5.0 0.00 0.00 0.00 91 1053.6
20240424153533 71 197 2.0 5.0 0.00 0.00 0.00 91 1053.7
20240424153031 71 221 5.0 5.0 0.00 0.00 0.00 91 1053.3
20240424152529 71 206 2.0 9.0 0.00 0.00 0.00 92 1053.4
20240424152029 70 181 5.0 10.0 0.00 0.00 0.00 93 1053.3
20240424151525 70 145 4.0 5.0 0.00 0.00 0.00 94 1053.2
20240424151024 70 200 6.0 6.0 0.00 0.00 0.00 94 1053.0
20240424150521 70 157 3.0 5.0 0.00 0.00 0.00 95 1053.0
20240424150021 70 180 3.0 6.0 0.00 0.00 0.00 95 1053.1
20240424145520 70 213 5.0 5.0 0.00 0.00 0.00 95 1053.0
20240424145020 69 166 9.0 11.0 0.00 0.00 0.00 96 1053.1
20240424144520 69 172 2.0 9.0 0.00 0.00 0.00 96 1053.2
20240424144018 69 164 5.0 8.0 0.00 0.00 0.00 96 1053.1
20240424143514 69 182 7.0 11.0 0.00 0.00 0.00 97 1052.8
20240424143013 69 148 4.0 7.0 0.00 0.00 0.00 97 1052.7
20240424142512 69 203 7.0 10.0 0.00 0.00 0.00 97 1052.8
20240424142010 69 180 4.0 8.0 0.00 0.00 0.00 98 1052.7
20240424141508 69 183 2.0 8.0 0.00 0.00 0.00 98 1052.5
20240424141005 69 180 2.0 9.0 0.00 0.00 0.00 98 1052.5
20240424140504 69 189 4.0 7.0 0.00 0.00 0.00 98 1052.6
20240424140003 69 213 3.0 5.0 0.00 0.00 0.00 98 1052.1
20240424135502 69 147 2.0 7.0 0.00 0.00 0.00 98 1052.4
20240424135000 68 206 4.0 9.0 0.00 0.00 0.00 98 1052.1
20240424134500 68 198 5.0 11.0 0.00 0.00 0.00 98 1052.4
20240424133959 68 180 3.0 10.0 0.00 0.00 0.00 98 1051.9
20240424133458 68 202 8.0 8.0 0.00 0.00 0.00 98 1052.1
20240424132956 68 163 4.0 6.0 0.00 0.00 0.00 98 1052.1
20240424132455 68 151 9.0 10.0 0.00 0.00 0.00 98 1051.9
20240424131953 68 170 3.0 11.0 0.00 0.00 0.00 98 1051.7
20240424131453 68 156 7.0 9.0 0.00 0.00 0.00 98 1051.7
20240424130950 68 204 6.0 11.0 0.00 0.00 0.00 98 1051.6
20240424130449 68 181 5.0 8.0 0.00 0.00 0.00 98 1051.7
20240424125949 68 159 3.0 11.0 0.00 0.00 0.00 98 1051.7
20240424125447 68 177 7.0 8.0 0.00 0.00 0.00 98 1051.6
20240424124946 68 193 7.0 7.0 0.00 0.00 0.00 98 1051.5
20240424124445 68 196 6.0 12.0 0.00 0.00 0.00 98 1051.5
20240424123944 68 211 3.0 9.0 0.00 0.00 0.00 97 1051.3
20240424123441 68 168 3.0 7.0 0.00 0.00 0.00 97 1051.2
20240424122941 68 203 3.0 9.0 0.00 0.00 0.00 97 1051.4
20240424122439 68 205 3.0 6.0 0.00 0.00 0.00 97 1051.2
20240424121937 68 164 5.0 9.0 0.00 0.00 0.00 97 1050.9
20240424121436 68 180 2.0 11.0 0.00 0.00 0.00 97 1051.1
20240424120936 68 131 8.0 9.0 0.00 0.00 0.00 97 1050.8
20240424120435 68 170 3.0 12.0 0.00 0.00 0.00 97 1051.0
20240424115934 68 198 6.0 13.0 0.00 0.00 0.00 97 1050.9
20240424115433 68 167 4.0 11.0 0.00 0.00 0.00 97 1050.9
20240424114933 68 221 5.0 10.0 0.00 0.00 0.00 97 1051.0
20240424114431 68 219 4.0 12.0 0.00 0.00 0.00 97 1050.8
20240424113931 68 175 5.0 15.0 0.00 0.00 0.00 97 1050.6
20240424113430 68 198 3.0 11.0 0.00 0.00 0.00 97 1050.7
20240424112929 68 191 5.0 9.0 0.00 0.00 0.00 97 1050.6
20240424112427 68 211 5.0 11.0 0.00 0.00 0.00 97 1050.4
20240424111928 68 180 6.0 10.0 0.00 0.00 0.00 97 1050.5
20240424111428 68 194 10.0 13.0 0.00 0.00 0.00 97 1050.4
20240424110927 68 151 5.0 14.0 0.00 0.00 0.00 96 1050.4
20240424110426 68 192 7.0 9.0 0.00 0.00 0.00 96 1050.4
20240424105925 68 225 4.0 12.0 0.00 0.00 0.00 96 1050.5
20240424105425 68 180 1.0 11.0 0.00 0.00 0.00 96 1050.4
20240424104923 68 180 5.0 9.0 0.00 0.00 0.00 96 1050.4
20240424104421 68 160 3.0 8.0 0.00 0.00 0.00 96 1050.3
20240424103920 68 184 6.0 9.0 0.00 0.00 0.00 96 1050.6
20240424103419 68 204 6.0 9.0 0.00 0.00 0.00 96 1050.3
20240424102918 68 163 3.0 9.0 0.00 0.00 0.00 96 1050.5
20240424102418 68 203 7.0 12.0 0.00 0.00 0.00 96 1050.3
20240424101918 68 199 3.0 9.0 0.00 0.00 0.00 96 1050.5
20240424101417 68 165 10.0 12.0 0.00 0.00 0.00 96 1050.4
20240424100916 68 201 9.0 10.0 0.00 0.00 0.00 95 1050.3
20240424100416 68 135 4.0 9.0 0.00 0.00 0.00 95 1050.4
20240424095916 68 174 5.0 9.0 0.00 0.00 0.00 95 1050.3
20240424095415 68 180 5.0 9.0 0.00 0.00 0.00 95 1050.5
20240424094914 68 149 9.0 11.0 0.00 0.00 0.00 95 1050.3
20240424094412 68 192 8.0 10.0 0.00 0.00 0.00 95 1050.4
20240424093912 68 166 6.0 12.0 0.00 0.00 0.00 94 1050.1
20240424093409 68 155 8.0 10.0 0.00 0.00 0.00 94 1050.2
20240424092909 68 164 5.0 12.0 0.00 0.00 0.00 94 1050.2
20240424092408 69 162 2.0 15.0 0.00 0.00 0.00 93 1050.1
20240424091908 69 172 5.0 8.0 0.00 0.00 0.00 93 1050.2
20240424091406 69 165 2.0 10.0 0.00 0.00 0.00 93 1050.2
20240424090904 69 172 5.0 8.0 0.00 0.00 0.00 93 1050.3
20240424090402 69 199 0.0 7.0 0.00 0.00 0.00 93 1050.4
20240424085901 69 182 3.0 11.0 0.00 0.00 0.00 93 1050.3
20240424085400 69 217 4.0 16.0 0.00 0.00 0.00 93 1050.6
20240424084858 69 184 2.0 13.0 0.00 0.00 0.00 93 1050.5
20240424084356 68 183 5.0 11.0 0.00 0.00 0.00 93 1050.4
20240424083856 68 202 7.0 8.0 0.00 0.00 0.00 93 1050.5
20240424083355 68 200 5.0 11.0 0.00 0.00 0.00 93 1050.8
20240424082855 68 187 3.0 4.0 0.00 0.00 0.00 93 1050.7
20240424082353 68 192 5.0 12.0 0.00 0.00 0.00 93 1050.4
20240424081851 68 201 5.0 10.0 0.00 0.00 0.00 93 1050.4
20240424081349 69 163 6.0 7.0 0.00 0.00 0.00 93 1050.6
20240424080848 69 163 3.0 7.0 0.00 0.00 0.00 93 1050.7
20240424080347 69 169 8.0 9.0 0.00 0.00 0.00 93 1050.7
20240424075847 68 172 4.0 8.0 0.00 0.00 0.00 93 1051.0
20240424075346 68 174 4.0 10.0 0.00 0.00 0.00 93 1050.7
20240424074845 68 181 5.0 9.0 0.00 0.00 0.00 93 1050.7
20240424074345 68 116 4.0 13.0 0.00 0.00 0.00 93 1050.8
20240424073843 68 180 2.0 11.0 0.00 0.00 0.00 93 1050.9
20240424073343 68 230 6.0 7.0 0.00 0.00 0.00 92 1050.8
20240424072842 69 177 3.0 9.0 0.00 0.00 0.00 92 1050.6
20240424072342 69 160 3.0 10.0 0.00 0.00 0.00 92 1050.9
20240424071840 69 200 5.0 15.0 0.00 0.00 0.00 92 1050.6
20240424071339 69 216 3.0 13.0 0.00 0.00 0.00 92 1050.8
20240424070838 69 164 8.0 11.0 0.00 0.00 0.00 91 1050.7
20240424070337 69 172 5.0 11.0 0.00 0.00 0.00 91 1050.8
20240424065836 69 202 5.0 11.0 0.00 0.00 0.00 90 1051.0
20240424065335 69 243 2.0 11.0 0.00 0.00 0.00 90 1051.1
20240424064834 69 203 8.0 10.0 0.00 0.00 0.00 90 1051.0
20240424064333 69 191 4.0 11.0 0.00 0.00 0.00 90 1051.0
20240424063831 69 180 2.0 11.0 0.00 0.00 0.00 89 1051.0
20240424063331 69 141 3.0 9.0 0.00 0.00 0.00 89 1051.1
20240424062829 69 165 5.0 13.0 0.00 0.00 0.00 89 1051.2
20240424062329 69 162 3.0 9.0 0.00 0.00 0.00 89 1051.2
20240424061827 69 198 6.0 7.0 0.00 0.00 0.00 89 1051.6
20240424061326 69 173 1.0 6.0 0.00 0.00 0.00 89 1051.4
20240424060825 69 164 8.0 11.0 0.00 0.00 0.00 89 1051.3
20240424060323 69 159 3.0 7.0 0.00 0.00 0.00 88 1051.1
20240424055823 69 202 6.0 13.0 0.00 0.00 0.00 88 1051.0
20240424055321 69 180 5.0 11.0 0.00 0.00 0.00 88 1051.1
20240424054820 69 150 7.0 12.0 0.00 0.00 0.00 88 1051.3
20240424054318 69 204 6.0 10.0 0.00 0.00 0.00 88 1051.2
20240424053818 69 197 11.0 11.0 0.00 0.00 0.00 88 1051.1
20240424053316 69 159 2.0 11.0 0.00 0.00 0.00 87 1051.1
20240424052816 69 172 5.0 11.0 0.00 0.00 0.00 87 1051.1
20240424052315 69 185 5.0 10.0 0.00 0.00 0.00 87 1051.1
20240424051814 69 210 5.0 11.0 0.00 0.00 0.00 87 1051.0
20240424051313 69 210 3.0 9.0 0.00 0.00 0.00 87 1051.0
20240424050813 69 206 13.0 13.0 0.00 0.00 0.00 87 1051.0
20240424050311 70 223 4.0 8.0 0.00 0.00 0.00 87 1050.7
20240424045808 70 165 11.0 12.0 0.00 0.00 0.00 87 1050.5
20240424045308 70 180 9.0 15.0 0.00 0.00 0.00 87 1051.0
20240424044807 69 226 5.0 8.0 0.00 0.00 0.00 87 1050.5
20240424044306 69 194 5.0 10.0 0.00 0.00 0.00 87 1050.6
20240424043805 69 213 3.0 7.0 0.00 0.00 0.00 87 1050.6
20240424043304 69 146 3.0 14.0 0.00 0.00 0.00 87 1050.5
20240424042804 69 186 4.0 14.0 0.00 0.00 0.00 87 1050.5
20240424042303 69 187 4.0 10.0 0.00 0.00 0.00 86 1050.5
20240424041801 69 210 7.0 10.0 0.00 0.00 0.00 86 1050.8
20240424041300 69 194 7.0 13.0 0.00 0.00 0.00 86 1050.5
20240424040759 69 207 6.0 9.0 0.00 0.00 0.00 86 1050.6
20240424040259 69 171 7.0 14.0 0.00 0.00 0.00 86 1050.8
20240424035758 69 160 4.0 8.0 0.00 0.00 0.00 86 1050.8
20240424035258 69 153 10.0 10.0 0.00 0.00 0.00 86 1050.7
20240424034757 69 205 3.0 10.0 0.00 0.00 0.00 86 1050.6
20240424034257 69 194 4.0 10.0 0.00 0.00 0.00 86 1050.9
20240424033755 69 164 3.0 14.0 0.00 0.00 0.00 86 1050.8
20240424033252 69 154 6.0 7.0 0.00 0.00 0.00 86 1050.4
20240424032752 69 127 8.0 9.0 0.00 0.00 0.00 86 1050.4
20240424032251 69 164 3.0 9.0 0.00 0.00 0.00 86 1050.6
20240424031750 69 154 6.0 9.0 0.00 0.00 0.00 86 1050.5
20240424031249 69 139 2.0 11.0 0.00 0.00 0.00 86 1050.4
20240424030748 70 187 5.0 8.0 0.00 0.00 0.00 86 1050.5
20240424030247 70 180 10.0 10.0 0.00 0.00 0.00 86 1050.3
20240424025746 70 169 6.0 9.0 0.00 0.00 0.00 86 1050.4
20240424025245 70 140 8.0 14.0 0.00 0.00 0.00 86 1050.4
20240424024745 70 213 2.0 11.0 0.00 0.00 0.00 86 1050.5
20240424024245 70 148 5.0 7.0 0.00 0.00 0.00 86 1050.4
20240424023742 70 147 8.0 11.0 0.00 0.00 0.00 86 1050.1
20240424023241 70 169 2.0 13.0 0.00 0.00 0.00 86 1050.1
20240424022740 70 199 4.0 16.0 0.00 0.00 0.00 86 1049.7
20240424022237 70 192 4.0 6.0 0.00 0.00 0.00 86 1049.8
20240424021737 70 162 5.0 9.0 0.00 0.00 0.00 85 1049.8
20240424021237 70 159 7.0 8.0 0.00 0.00 0.00 85 1049.6
20240424020737 70 127 2.0 9.0 0.00 0.00 0.00 84 1049.6
20240424020236 70 192 1.0 11.0 0.00 0.00 0.00 84 1049.5
20240424015735 70 184 4.0 11.0 0.00 0.00 0.00 84 1049.1
20240424015234 70 210 5.0 11.0 0.00 0.00 0.00 84 1049.5
20240424014734 70 183 3.0 9.0 0.00 0.00 0.00 84 1049.5
20240424014232 70 136 7.0 10.0 0.00 0.00 0.00 84 1049.3
20240424013731 70 191 5.0 7.0 0.00 0.00 0.00 83 1049.3
20240424013230 70 156 2.0 11.0 0.00 0.00 0.00 83 1049.3
20240424012729 70 190 3.0 12.0 0.00 0.00 0.00 83 1049.0
20240424012229 70 170 5.0 12.0 0.00 0.00 0.00 83 1048.9
20240424011728 70 150 5.0 14.0 0.00 0.00 0.00 83 1049.3
20240424011227 71 185 5.0 7.0 0.00 0.00 0.00 82 1049.4
20240424010726 71 245 8.0 10.0 0.00 0.00 0.00 82 1049.4
20240424010225 71 194 6.0 12.0 0.00 0.00 0.00 82 1049.2
20240424005723 71 198 5.0 9.0 0.00 0.00 0.00 82 1049.5
20240424005222 71 208 5.0 12.0 0.00 0.00 0.00 82 1049.2
20240424004721 71 170 6.0 17.0 0.00 0.00 0.00 82 1049.1
20240424004221 71 204 8.0 15.0 0.00 0.00 0.00 82 1048.9
20240424003719 71 180 5.0 12.0 0.00 0.00 0.00 82 1048.8
20240424003218 71 189 7.0 14.0 0.00 0.00 0.00 81 1048.8
20240424002716 71 190 3.0 9.0 0.00 0.00 0.00 81 1049.0
20240424002215 71 216 5.0 17.0 0.00 0.00 0.00 81 1048.8
20240424001714 71 210 10.0 17.0 0.00 0.00 0.00 80 1048.9
20240424001212 71 147 4.0 9.0 0.00 0.00 0.00 80 1048.8
20240424000710 71 183 9.0 17.0 0.00 0.00 0.00 80 1048.9
20240424000209 71 177 8.0 17.0 0.00 0.00 0.00 80 1049.0
20240423235708 71 173 8.0 10.0 0.00 0.00 0.00 80 1049.1
20240423235207 71 198 9.0 17.0 0.00 0.00 0.00 80 1048.9
20240423234706 71 210 4.0 15.0 0.00 0.00 0.00 80 1049.0
20240423234204 71 184 5.0 12.0 0.00 0.00 0.00 80 1049.3
20240423233702 71 191 7.0 15.0 0.00 0.00 0.00 79 1049.0
20240423233200 71 132 5.0 14.0 0.00 0.00 0.00 79 1049.0
20240423232659 72 153 6.0 12.0 0.00 0.00 0.00 78 1049.0
20240423232158 72 154 12.0 18.0 0.00 0.00 0.00 78 1049.1
20240423231657 72 158 2.0 10.0 0.00 0.00 0.00 78 1049.2
20240423231156 72 154 15.0 16.0 0.00 0.00 0.00 78 1049.2
20240423230655 72 184 14.0 17.0 0.00 0.00 0.00 77 1049.1